• In Belarus
  • List of Countries
  • For 7 days
  • Water Temperature
  • Satellite Maps
  • Weather Map
  • Weather Widgets
  • user-avatar
    Login

    Hourly Weather Lechitow

    Today, 26 March, Tuesday

    Time Temperature Precipitation Wind Pressure Humidity
    00:00 0°C° 0 mm 4 mps 757 mmHg 91%
    01:00 +1°C° 0 mm 3 mps 757 mmHg 93%
    02:00 0°C° 0 mm 3 mps 757 mmHg 94%
    03:00 0°C° 0 mm 3 mps 758 mmHg 95%
    04:00 -1°C° 0 mm 3 mps 758 mmHg 96%
    05:00 0°C° 0 mm 3 mps 758 mmHg 94%
    06:00 -1°C° 0 mm 4 mps 758 mmHg 92%
    07:00 -1°C° 0 mm 5 mps 758 mmHg 90%
    08:00 +1°C° 0 mm 6 mps 758 mmHg 83%
    09:00 +3°C° 0 mm 7 mps 758 mmHg 75%
    10:00 +5°C° 0 mm 8 mps 758 mmHg 67%
    11:00 +5°C° 0 mm 8 mps 758 mmHg 65%
    12:00 +5°C° 0 mm 9 mps 757 mmHg 62%
    13:00 +6°C° 0 mm 9 mps 757 mmHg 59%
    14:00 +5°C° 0.1 mm 9 mps 757 mmHg 63%
    15:00 +4°C° 0.1 mm 8 mps 757 mmHg 66%
    16:00 +4°C° 0.1 mm 8 mps 757 mmHg 70%
    17:00 +3°C° 0.1 mm 7 mps 758 mmHg 71%
    18:00 +3°C° 0.1 mm 6 mps 758 mmHg 72%
    19:00 +3°C° 0.1 mm 5 mps 759 mmHg 73%
    20:00 +3°C° 0 mm 5 mps 759 mmHg 75%
    21:00 +3°C° 0 mm 4 mps 760 mmHg 77%
    22:00 +3°C° 0 mm 3 mps 760 mmHg 80%
    23:00 +2°C° 0 mm 3 mps 761 mmHg 83%

    Tomorrow, 27 March, Wednesday

    Time Temperature Precipitation Wind Pressure Humidity
    00:00 +2°C° 0 mm 2 mps 761 mmHg 86%
    01:00 +2°C° 0 mm 2 mps 761 mmHg 90%
    02:00 +1°C° 0 mm 2 mps 761 mmHg 91%
    03:00 +1°C° 0 mm 2 mps 761 mmHg 92%
    04:00 +1°C° 0 mm 2 mps 762 mmHg 94%
    05:00 0°C° 0 mm 3 mps 762 mmHg 92%
    06:00 0°C° 0 mm 3 mps 762 mmHg 90%
    07:00 +1°C° 0 mm 3 mps 762 mmHg 88%
    08:00 +3°C° 0 mm 3 mps 763 mmHg 84%
    09:00 +4°C° 0 mm 4 mps 763 mmHg 80%
    10:00 +6°C° 0 mm 4 mps 763 mmHg 76%
    11:00 +7°C° 0 mm 4 mps 763 mmHg 72%
    12:00 +8°C° 0 mm 5 mps 763 mmHg 68%
    13:00 +9°C° 0 mm 5 mps 762 mmHg 64%
    14:00 +9°C° 0 mm 5 mps 762 mmHg 66%
    15:00 +9°C° 0 mm 5 mps 762 mmHg 67%
    16:00 +8°C° 0 mm 5 mps 762 mmHg 68%
    17:00 +8°C° 0 mm 4 mps 762 mmHg 72%
    18:00 +7°C° 0 mm 4 mps 762 mmHg 77%
    19:00 +8°C° 0 mm 3 mps 762 mmHg 81%
    20:00 +7°C° 0 mm 3 mps 762 mmHg 83%
    21:00 +7°C° 0 mm 3 mps 762 mmHg 85%
    22:00 +7°C° 0 mm 3 mps 762 mmHg 87%
    23:00 +7°C° 0 mm 3 mps 762 mmHg 89%

    Day after tomorrow, 28 March, Thursday

    Time Temperature Precipitation Wind Pressure Humidity
    00:00 +7°C° 0 mm 3 mps 762 mmHg 91%
    01:00 +7°C° 0 mm 3 mps 762 mmHg 92%
    02:00 +7°C° 0.1 mm 3 mps 763 mmHg 93%
    03:00 +7°C° 0.1 mm 3 mps 763 mmHg 93%
    04:00 +7°C° 0.1 mm 3 mps 763 mmHg 94%
    05:00 +7°C° 0.1 mm 3 mps 763 mmHg 93%
    06:00 +6°C° 0.1 mm 4 mps 763 mmHg 92%
    07:00 +6°C° 0.1 mm 4 mps 764 mmHg 92%
    08:00 +7°C° 0.1 mm 4 mps 764 mmHg 86%
    09:00 +7°C° 0.1 mm 4 mps 765 mmHg 80%
    10:00 +8°C° 0.1 mm 4 mps 765 mmHg 74%
    11:00 +10°C° 0 mm 3 mps 765 mmHg 70%
    12:00 +10°C° 0 mm 3 mps 765 mmHg 67%
    13:00 +11°C° 0 mm 3 mps 765 mmHg 63%
    14:00 +11°C° 0 mm 3 mps 765 mmHg 61%
    15:00 +11°C° 0 mm 3 mps 765 mmHg 59%
    16:00 +13°C° 0 mm 2 mps 765 mmHg 57%
    17:00 +10°C° 0 mm 2 mps 766 mmHg 61%
    18:00 +9°C° 0 mm 2 mps 766 mmHg 65%
    19:00 +8°C° 0 mm 2 mps 766 mmHg 69%
    20:00 +8°C° 0 mm 3 mps 767 mmHg 74%
    21:00 +7°C° 0 mm 3 mps 767 mmHg 79%
    22:00 +7°C° 0 mm 3 mps 767 mmHg 84%
    23:00 +5°C° 0 mm 3 mps 767 mmHg 88%

    29 March, Friday

    Time Temperature Precipitation Wind Pressure Humidity
    00:00 +5°C° 0 mm 3 mps 767 mmHg 91%
    01:00 +5°C° 0 mm 3 mps 767 mmHg 95%
    02:00 +5°C° 0 mm 3 mps 767 mmHg 96%
    03:00 +5°C° 0 mm 3 mps 767 mmHg 96%
    04:00 +4°C° 0 mm 3 mps 767 mmHg 97%
    05:00 +5°C° 0 mm 3 mps 767 mmHg 96%
    06:00 +5°C° 0 mm 4 mps 767 mmHg 95%
    07:00 +6°C° 0 mm 4 mps 767 mmHg 95%
    08:00 +7°C° 0 mm 4 mps 767 mmHg 90%
    09:00 +8°C° 0 mm 4 mps 767 mmHg 85%
    10:00 +11°C° 0 mm 4 mps 767 mmHg 81%
    11:00 +12°C° 0 mm 4 mps 767 mmHg 74%
    12:00 +14°C° 0 mm 4 mps 767 mmHg 66%
    13:00 +15°C° 0 mm 4 mps 766 mmHg 59%
    14:00 +17°C° 0 mm 4 mps 766 mmHg 57%
    15:00 +17°C° 0 mm 4 mps 765 mmHg 56%
    16:00 +17°C° 0 mm 4 mps 765 mmHg 55%
    17:00 +14°C° 0 mm 3 mps 765 mmHg 61%
    18:00 +13°C° 0 mm 3 mps 765 mmHg 68%
    19:00 +12°C° 0 mm 2 mps 765 mmHg 74%
    20:00 +12°C° 0 mm 2 mps 765 mmHg 78%
    21:00 +10°C° 0 mm 3 mps 765 mmHg 82%
    22:00 +9°C° 0 mm 3 mps 765 mmHg 85%
    23:00 +9°C° 0 mm 3 mps 765 mmHg 88%

    30 March, Saturday

    Time Temperature Precipitation Wind Pressure Humidity
    00:00 +8°C° 0 mm 3 mps 765 mmHg 90%
    01:00 +8°C° 0 mm 3 mps 765 mmHg 93%
    02:00 +8°C° 0 mm 3 mps 764 mmHg 93%
    03:00 +7°C° 0 mm 3 mps 764 mmHg 94%
    04:00 +7°C° 0 mm 3 mps 764 mmHg 94%
    05:00 +7°C° 0 mm 3 mps 763 mmHg 92%
    06:00 +8°C° 0 mm 3 mps 763 mmHg 90%
    07:00 +8°C° 0 mm 3 mps 763 mmHg 88%
    08:00 +10°C° 0 mm 3 mps 763 mmHg 80%
    09:00 +12°C° 0 mm 3 mps 763 mmHg 72%
    10:00 +14°C° 0 mm 3 mps 762 mmHg 63%
    11:00 +16°C° 0 mm 3 mps 762 mmHg 58%
    12:00 +18°C° 0 mm 3 mps 761 mmHg 53%
    13:00 +19°C° 0 mm 4 mps 760 mmHg 48%
    14:00 +19°C° 0 mm 4 mps 759 mmHg 48%
    15:00 +19°C° 0 mm 4 mps 759 mmHg 47%
    16:00 +19°C° 0 mm 4 mps 758 mmHg 46%
    17:00 +17°C° 0 mm 3 mps 758 mmHg 53%
    18:00 +16°C° 0 mm 3 mps 757 mmHg 59%
    19:00 +14°C° 0 mm 2 mps 757 mmHg 65%
    20:00 +13°C° 0 mm 2 mps 757 mmHg 69%
    21:00 +13°C° 0 mm 2 mps 757 mmHg 73%
    22:00 +12°C° 0 mm 2 mps 756 mmHg 77%
    23:00 +11°C° 0.1 mm 3 mps 756 mmHg 80%

    31 March, Sunday

    Time Temperature Precipitation Wind Pressure Humidity
    00:00 +11°C° 0.1 mm 3 mps 756 mmHg 83%
    01:00 +10°C° 0.1 mm 3 mps 756 mmHg 86%
    02:00 +8°C° 0.5 mm 4 mps 756 mmHg 85%
    03:00 +7°C° 0.5 mm 5 mps 757 mmHg 84%
    04:00 +6°C° 0.5 mm 7 mps 757 mmHg 84%
    05:00 +5°C° 0.2 mm 7 mps 758 mmHg 81%
    06:00 +4°C° 0.2 mm 7 mps 758 mmHg 78%
    07:00 +3°C° 0.2 mm 7 mps 759 mmHg 75%
    08:00 +3°C° 0 mm 7 mps 760 mmHg 68%
    09:00 +4°C° 0 mm 7 mps 761 mmHg 61%
    10:00 +5°C° 0 mm 7 mps 761 mmHg 55%
    11:00 +5°C° 0 mm 7 mps 761 mmHg 48%
    12:00 +5°C° 0 mm 7 mps 762 mmHg 42%
    13:00 +6°C° 0 mm 7 mps 762 mmHg 35%
    14:00 +6°C° 0 mm 7 mps 762 mmHg 35%
    15:00 +6°C° 0 mm 7 mps 762 mmHg 34%
    16:00 +7°C° 0 mm 6 mps 762 mmHg 33%
    17:00 +5°C° 0 mm 6 mps 763 mmHg 36%
    18:00 +5°C° 0 mm 5 mps 763 mmHg 39%
    19:00 +3°C° 0 mm 4 mps 764 mmHg 42%
    20:00 +3°C° 0 mm 3 mps 764 mmHg 44%
    21:00 +2°C° 0 mm 3 mps 765 mmHg 47%
    22:00 +1°C° 0 mm 3 mps 765 mmHg 49%
    23:00 +1°C° 0 mm 2 mps 765 mmHg 53%
    Show more